Date_and_time,latitude,longitude,wind_speed,RelWindDirFrom,WindDirFrom,air_pressure,air_temperature,relative_humidity,Temp,platform_speed_wrt_ground,air_pressure_at_mean_sea_level,platform_orientation
2018-07-01 00:00,50.9117283333333,-96.9825333333333,13.4,17.9,283,979.28,20.5,63,21.63,0.0,1004.91,0.0
2018-07-01 00:10,50.9117383333333,-96.9825266666667,11.0,15.7,287,979.48,20.8,63,21.60,0.0,1005.08,0.0
2018-07-01 00:20,50.9117366666667,-96.9825233333333,13.0,20.7,278,979.43,21.1,60,21.61,0.0,1005.02,0.0
2018-07-01 00:30,50.911735,-96.9825216666667,11.1,17.9,297,979.66,20.8,59,21.63,0.0,1005.27,0.0
2018-07-01 00:40,50.911725,-96.9825233333333,10.7,15.2,293,979.76,20.3,61,21.57,0.0,1005.39,0.0
2018-07-01 00:50,50.9117266666667,-96.98253,9.4,12.9,288,979.98,20.0,64,21.45,0.0,1005.63,0.0
2018-07-01 01:00,50.91173,-96.98253,8.6,11.7,287,980.08,20.7,62,21.39,0.0,1005.69,270.0
2018-07-01 01:10,50.9117316666667,-96.9825283333333,8.8,14.1,287,980.01,20.9,61,21.43,0.0,1005.64,270.0
2018-07-01 01:20,50.9117283333333,-96.9825233333333,9.6,13.4,282,980.08,20.8,60,21.44,0.0,1005.76,270.0
2018-07-01 01:30,50.9117316666667,-96.9825183333333,9.8,13.3,285,980.14,20.7,60,21.43,0.0,1005.84,270.0
2018-07-01 01:40,50.9117366666667,-96.9825183333333,8.8,12.1,282,980.19,20.6,60,21.41,0.0,1005.89,270.0
2018-07-01 01:50,50.91172,-96.9825316666667,7.3,11.3,276,980.23,20.5,61,21.38,0.0,1005.93,270.0
2018-07-01 02:00,50.91173,-96.982525,6.9,9.7,272,980.34,20.4,62,21.34,0.0,1006.03,90.0
2018-07-01 02:10,50.9117266666667,-96.982525,5.9,8.5,264,980.61,20.2,63,21.29,0.0,1006.30,90.0
2018-07-01 02:20,50.911735,-96.9825233333333,5.8,9.2,262,980.66,19.9,65,21.22,0.0,1006.38,90.0
2018-07-01 02:30,50.9117333333333,-96.9825316666667,5.9,8.8,264,980.55,19.5,66,21.12,0.0,1006.31,90.0
2018-07-01 02:40,50.9117383333333,-96.9825866666667,5.7,7.8,261,980.51,19.1,67,21.01,0.0,1006.30,90.0
2018-07-01 02:50,50.9117333333333,-96.982535,4.8,7.2,251,980.51,18.6,68,20.89,0.0,1006.29,90.0
2018-07-01 03:00,50.9117366666667,-96.9825283333333,4.8,7.3,252,980.47,18.3,69,20.79,0.0,1006.25,47.9
2018-07-01 03:10,50.9117366666667,-96.98253,5.2,7.5,249,980.43,17.9,71,20.66,0.0,1006.23,47.9
2018-07-01 03:20,50.91172,-96.9825216666667,4.7,6.4,249,980.54,17.6,73,20.52,0.0,1006.37,47.9
2018-07-01 03:30,50.9117266666667,-96.982525,4.1,5.4,251,980.56,17.4,74,20.41,0.0,1006.39,47.9
2018-07-01 03:40,50.9117283333333,-96.9825266666667,4.0,5.9,249,980.52,17.2,75,20.31,0.0,1006.37,47.9
2018-07-01 03:50,50.91173,-96.982525,4.4,6.7,251,980.49,17.1,75,20.22,0.0,1006.35,47.9
2018-07-01 04:00,50.91174,-96.9825216666667,4.6,6.2,247,980.51,17.1,74,20.12,0.0,1006.39,360.0
2018-07-01 04:10,50.91173,-96.98257,4.5,6.9,238,980.56,17.1,74,20.03,0.0,1006.44,360.0
2018-07-01 04:20,50.91171,-96.9825183333333,3.5,5.6,233,980.57,16.9,76,19.96,0.0,1006.48,360.0
2018-07-01 04:30,50.91173,-96.982515,3.5,5.6,234,980.57,16.6,78,19.89,0.0,1006.52,360.0
2018-07-01 04:40,50.91173,-96.9825183333333,4.2,6.3,239,980.58,16.5,78,19.82,0.0,1006.55,360.0
2018-07-01 04:50,50.9117266666667,-96.9825166666667,4.7,6.4,237,980.59,16.4,79,19.74,0.0,1006.58,360.0
2018-07-01 05:00,50.9117266666667,-96.98252,5.1,7.1,239,980.55,16.3,80,19.63,0.0,1006.56,90.0
2018-07-01 05:10,50.9117266666667,-96.9825216666667,4.6,7.8,234,980.49,16.2,80,19.51,0.0,1006.52,90.0
2018-07-01 05:20,50.9117283333333,-96.9825216666667,4.2,6.5,242,980.46,16.1,81,19.42,0.0,1006.50,90.0
2018-07-01 05:30,50.91173,-96.9825233333333,3.9,6.4,234,980.59,16.1,82,19.34,0.0,1006.65,90.0
2018-07-01 05:40,50.911715,-96.9825033333333,3.9,6.2,219,980.84,16.2,81,19.30,0.0,1006.89,90.0
2018-07-01 05:50,50.9117216666667,-96.9825233333333,4.5,7.9,213,980.76,16.4,80,19.27,0.0,1006.80,90.0
2018-07-01 06:00,50.9117233333333,-96.982525,4.1,6.8,214,980.70,16.2,81,19.24,0.0,1006.76,360.0
2018-07-01 06:10,50.911725,-96.9825266666667,4.2,6.9,218,980.68,16.1,80,19.19,0.0,1006.75,360.0
2018-07-01 06:20,50.9117233333333,-96.9825216666667,3.6,6.7,224,980.71,16.1,81,19.15,0.0,1006.79,360.0
2018-07-01 06:30,50.9117266666667,-96.98252,3.8,6.7,225,980.81,16.0,81,19.10,0.0,1006.90,360.0
2018-07-01 06:40,50.91175,-96.9824566666667,4.2,6.8,223,980.77,15.9,82,19.06,0.0,1006.87,360.0
2018-07-01 06:50,50.9117283333333,-96.9825133333333,3.9,6.1,233,980.67,15.8,83,19.00,0.0,1006.78,360.0
2018-07-01 07:00,50.9117266666667,-96.98252,5.0,6.9,241,980.65,15.7,85,18.92,0.0,1006.76,360.0
2018-07-01 07:10,50.911725,-96.9825283333333,4.1,5.3,241,980.55,15.7,85,18.86,0.0,1006.66,360.0
2018-07-01 07:20,50.91172,-96.9825216666667,2.2,4.6,222,980.52,16.0,84,18.86,0.0,1006.63,360.0
2018-07-01 07:30,50.9117233333333,-96.9825266666667,2.3,4.7,191,980.40,15.7,86,18.91,0.0,1006.51,360.0
2018-07-01 07:40,50.9117266666667,-96.9825266666667,4.0,5.9,196,980.40,15.4,91,18.97,0.0,1006.52,360.0
2018-07-01 07:50,50.9117266666667,-96.9825283333333,4.3,7.0,210,980.35,15.2,91,18.94,0.0,1006.48,360.0
2018-07-01 08:00,50.911725,-96.9825283333333,4.1,7.2,224,980.20,15.0,92,18.85,0.0,1006.34,189.8
2018-07-01 08:10,50.9117233333333,-96.9825283333333,3.8,7.2,226,980.11,15.0,92,18.74,0.0,1006.25,189.8
2018-07-01 08:20,50.9117233333333,-96.9825283333333,3.9,6.2,240,979.99,14.9,93,18.64,0.0,1006.14,189.8
2018-07-01 08:30,50.9117233333333,-96.9825283333333,4.0,6.2,238,979.86,14.7,94,18.54,0.0,1006.01,189.8
2018-07-01 08:40,50.9117233333333,-96.9825266666667,4.3,7.2,228,979.90,14.9,93,18.45,0.0,1006.05,189.8
2018-07-01 08:50,50.9117216666667,-96.9825266666667,4.3,7.4,232,979.89,14.9,94,18.37,0.0,1006.04,189.8
2018-07-01 09:00,50.9117216666667,-96.9825266666667,4.6,6.0,242,979.90,14.9,94,18.28,0.0,1006.05,360.0
2018-07-01 09:10,50.9117183333333,-96.9825366666667,5.5,9.7,237,979.82,15.0,95,18.22,0.0,1005.95,360.0
2018-07-01 09:20,50.9117183333333,-96.9825316666667,5.0,7.4,236,979.80,15.2,94,18.14,0.0,1005.94,360.0
2018-07-01 09:30,50.9117183333333,-96.9825316666667,5.2,8.1,240,979.73,15.0,96,18.09,0.0,1005.89,360.0
2018-07-01 09:40,50.9117083333333,-96.982525,5.5,8.9,236,979.75,14.9,98,18.02,0.0,1005.93,360.0
2018-07-01 09:50,50.91171,-96.982525,5.6,8.8,233,979.82,14.7,99,17.93,0.0,1006.02,360.0
2018-07-01 10:00,50.91172,-96.98253,5.9,8.7,238,979.86,14.6,99,17.83,0.0,1006.06,360.0
2018-07-01 10:10,50.9117233333333,-96.9825283333333,5.4,9.1,241,980.00,14.4,100,17.74,0.0,1006.22,360.0
2018-07-01 10:20,50.9117233333333,-96.9825266666667,5.9,8.8,238,979.95,14.4,100,17.66,0.0,1006.17,360.0
2018-07-01 10:30,50.911725,-96.9825283333333,5.6,8.2,241,979.99,14.5,100,17.59,0.0,1006.20,360.0
2018-07-01 10:40,50.911725,-96.9825266666667,6.7,9.5,256,980.06,14.8,100,17.54,0.0,1006.26,360.0
2018-07-01 10:50,50.9117266666667,-96.982525,7.0,9.1,261,980.05,15.0,100,17.51,0.0,1006.24,360.0
2018-07-01 11:00,50.911725,-96.982525,6.0,9.1,261,980.25,15.1,100,17.52,0.0,1006.44,0.0
2018-07-01 11:10,50.911725,-96.982525,5.8,8.3,264,980.31,15.1,100,17.55,0.0,1006.49,0.0
2018-07-01 11:20,50.911725,-96.982525,6.3,9.0,254,980.42,15.1,100,17.58,0.0,1006.61,0.0
2018-07-01 11:30,50.9117233333333,-96.982525,5.4,8.2,247,980.64,15.3,99,17.60,0.0,1006.83,0.0
2018-07-01 11:40,50.9117233333333,-96.9825383333333,6.6,9.4,250,980.68,15.4,99,17.62,0.0,1006.88,0.0
2018-07-01 11:50,50.9117316666667,-96.9825183333333,6.4,9.7,252,980.68,15.6,99,17.62,0.0,1006.88,0.0
2018-07-01 12:00,50.9117316666667,-96.9825266666667,5.7,9.7,251,980.61,15.9,98,17.64,0.0,1006.79,360.0
2018-07-01 12:10,50.9117216666667,-96.9825166666667,6.3,9.3,261,980.48,16.2,97,17.69,0.0,1006.65,360.0
2018-07-01 12:20,50.9117216666667,-96.98253,4.9,7.6,271,980.42,16.4,96,17.74,0.0,1006.57,360.0
2018-07-01 12:30,50.9117166666667,-96.982525,4.4,7.1,266,980.29,16.8,94,17.84,0.0,1006.41,360.0
2018-07-01 12:40,50.9117316666667,-96.9825183333333,6.3,9.6,288,980.04,17.1,91,17.94,0.0,1006.13,360.0
2018-07-01 12:50,50.9117283333333,-96.9825216666667,5.8,8.5,302,979.89,17.3,90,18.04,0.0,1005.97,360.0
2018-07-01 13:00,50.9117266666667,-96.982525,6.5,9.6,296,979.86,17.5,87,18.13,0.0,1005.92,360.0
2018-07-01 13:10,50.9117333333333,-96.98255,6.3,9.2,296,979.85,17.9,82,18.21,0.0,1005.90,360.0
2018-07-01 13:20,50.911725,-96.9825316666667,4.6,6.2,292,979.87,18.5,79,18.32,0.0,1005.88,360.0
2018-07-01 13:30,50.911725,-96.9825266666667,4.1,6.3,270,979.87,19.1,73,18.45,0.0,1005.85,360.0
2018-07-01 13:40,50.911725,-96.9825266666667,4.2,7.9,263,979.87,19.5,69,18.60,0.0,1005.82,360.0
2018-07-01 13:50,50.911725,-96.9825266666667,4.4,6.7,260,979.85,19.7,69,18.74,0.0,1005.77,360.0
2018-07-01 14:00,50.9116933333333,-96.9824983333333,4.0,6.1,239,979.76,19.8,68,18.85,0.0,1005.67,157.3
2018-07-01 14:10,50.911725,-96.9825266666667,2.9,5.9,247,979.68,20.2,67,18.96,0.0,1005.56,157.3
2018-07-01 14:20,50.9117283333333,-96.9825283333333,2.7,5.1,230,979.63,20.6,65,19.07,0.0,1005.47,157.3
2018-07-01 14:30,50.91173,-96.98253,2.1,5.1,228,979.56,21.0,65,19.18,0.0,1005.36,157.3
2018-07-01 14:40,50.9117283333333,-96.9825283333333,3.0,6.1,250,979.46,21.5,64,19.30,0.0,1005.23,157.3
2018-07-01 14:50,50.91173,-96.9825283333333,3.9,7.0,261,979.34,21.6,64,19.45,0.0,1005.09,157.3
2018-07-01 15:00,50.91173,-96.9825283333333,2.1,5.9,254,979.32,22.1,64,19.59,0.0,1005.03,0.0
2018-07-01 15:10,50.9117333333333,-96.9825333333333,2.8,4.5,138,979.16,22.1,66,19.69,0.0,1004.85,0.0
2018-07-01 15:20,50.9117233333333,-96.98254,3.7,4.8,128,979.06,21.6,69,19.71,0.0,1004.73,0.0
2018-07-01 15:30,50.911725,-96.9825366666667,4.1,5.1,109,979.00,22.1,69,19.70,0.0,1004.63,0.0
2018-07-01 15:40,50.9117033333333,-96.9825283333333,5.8,9.0,123,978.95,21.6,71,19.70,0.0,1004.60,0.0
2018-07-01 15:50,50.9117216666667,-96.9825183333333,8.5,11.0,131,978.90,20.6,77,19.71,0.0,1004.59,0.0
2018-07-01 16:00,50.911745,-96.9825533333333,7.7,8.9,133,978.89,20.3,81,19.74,0.0,1004.57,299.5
2018-07-01 16:10,50.9117333333333,-96.98253,8.7,9.9,139,978.98,20.3,81,19.76,0.0,1004.65,299.5
2018-07-01 16:20,50.9117266666667,-96.9825316666667,8.3,9.4,129,978.94,20.4,82,19.79,0.0,1004.59,299.5
2018-07-01 16:30,50.9117216666667,-96.9825316666667,8.8,10.9,126,978.86,20.7,82,19.83,0.0,1004.47,299.5
2018-07-01 16:40,50.91174,-96.9825616666667,10.0,11.2,130,978.73,21.0,78,19.90,0.0,1004.31,299.5
2018-07-01 16:50,50.9117033333333,-96.9825133333333,9.8,12.3,134,978.66,21.2,79,20.00,0.0,1004.21,299.5
2018-07-01 17:00,50.9117416666667,-96.9825416666667,9.6,12.1,134,978.54,21.4,74,20.09,0.0,1004.08,329.6
2018-07-01 17:10,50.9117283333333,-96.9825416666667,8.9,9.9,138,978.52,21.7,74,20.19,0.0,1004.06,329.6
2018-07-01 17:20,50.9117133333333,-96.9825133333333,10.4,11.9,139,978.45,21.6,76,20.29,0.0,1003.97,329.6
2018-07-01 17:30,50.9117166666667,-96.982525,10.1,11.5,136,978.42,21.7,75,20.38,0.0,1003.97,329.6
2018-07-01 17:40,50.9117183333333,-96.9825233333333,10.7,12.5,141,978.46,21.7,75,20.46,0.0,1004.05,329.6
2018-07-01 17:50,50.9117283333333,-96.9825716666667,11.4,13.1,145,978.41,21.9,76,20.56,0.0,1004.01,329.6
2018-07-01 18:00,50.9117466666667,-96.9825333333333,11.9,13.0,140,978.34,21.9,69,20.66,0.0,1003.93,360.0
2018-07-01 18:10,50.91173,-96.9825233333333,12.3,14.4,138,978.22,22.0,72,20.74,0.0,1003.80,360.0
2018-07-01 18:20,50.91174,-96.9825233333333,13.8,15.3,141,978.15,21.9,77,20.82,0.0,1003.72,360.0
2018-07-01 18:30,50.9117233333333,-96.9825216666667,13.4,15.0,140,978.18,21.8,79,20.90,0.0,1003.74,360.0
2018-07-01 18:40,50.9117216666667,-96.9825216666667,14.8,16.9,140,978.12,21.7,81,20.97,0.0,1003.68,360.0
2018-07-01 18:50,50.9117316666667,-96.98255,15.3,17.5,143,977.95,21.8,78,21.03,0.0,1003.49,360.0
2018-07-01 19:00,50.9117283333333,-96.9825316666667,15.4,18.8,146,977.88,21.9,77,21.12,0.0,1003.40,119.5
2018-07-01 19:10,50.9117283333333,-96.982535,15.0,17.4,142,977.72,21.9,75,21.23,0.0,1003.24,119.5
2018-07-01 19:20,50.91173,-96.982535,14.7,16.8,139,977.55,22.0,73,21.29,0.0,1003.05,119.5
2018-07-01 19:30,50.9117316666667,-96.982535,14.7,17.8,139,977.40,22.1,69,21.33,0.0,1002.90,119.5
2018-07-01 19:40,50.9117333333333,-96.9825333333333,13.6,15.9,133,977.12,22.3,69,21.38,0.0,1002.59,119.5
2018-07-01 19:50,50.9117266666667,-96.9825433333333,14.9,16.9,138,976.84,22.0,70,21.41,0.0,1002.32,119.5
2018-07-01 20:00,50.9117383333333,-96.9825733333333,16.2,18.4,137,976.57,22.5,67,21.45,0.0,1002.02,270.0
2018-07-01 20:10,50.9117383333333,-96.9825283333333,15.9,18.0,135,976.42,22.6,66,21.53,0.0,1001.87,270.0
2018-07-01 20:20,50.9117416666667,-96.982535,14.6,17.3,135,976.44,22.6,68,21.61,0.0,1001.89,270.0
2018-07-01 20:30,50.91174,-96.9825333333333,14.6,16.7,133,976.37,22.4,67,21.66,0.0,1001.83,270.0
2018-07-01 20:40,50.9117366666667,-96.98252,13.8,16.3,133,976.27,22.2,69,21.67,0.0,1001.73,270.0
2018-07-01 20:50,50.9117433333333,-96.9825266666667,14.6,17.4,134,976.09,22.2,67,21.67,0.0,1001.54,270.0
2018-07-01 21:00,50.91174,-96.9825233333333,15.1,17.6,126,975.83,21.6,76,21.65,0.0,1001.30,119.5
2018-07-01 21:10,50.911735,-96.98251,12.5,15.7,119,975.77,22.0,72,21.60,0.0,1001.22,119.5
2018-07-01 21:20,50.9117316666667,-96.98253,10.7,13.2,134,976.15,22.0,74,21.56,0.0,1001.60,119.5
2018-07-01 21:30,50.9117216666667,-96.9825416666667,11.3,14.2,146,976.29,22.2,70,21.55,0.0,1001.73,119.5
2018-07-01 21:40,50.9117216666667,-96.982535,9.8,11.8,146,976.15,22.2,73,21.56,0.0,1001.60,119.5
2018-07-01 21:50,50.9117216666667,-96.982535,11.9,26.7,185,976.34,21.8,70,21.56,0.0,1001.79,119.5
2018-07-01 22:00,50.911725,-96.9825333333333,15.1,24.1,184,976.35,19.1,76,21.40,0.0,1001.91,189.8
2018-07-01 22:10,50.911725,-96.982535,6.4,9.4,160,975.86,18.0,72,20.93,0.0,1001.46,189.8
2018-07-01 22:20,50.9117266666667,-96.982535,11.9,16.1,150,975.45,18.7,74,20.70,0.0,1001.01,189.8
2018-07-01 22:30,50.9117266666667,-96.9825333333333,12.0,14.5,141,975.25,19.2,76,20.58,0.0,1000.80,189.8
2018-07-01 22:40,50.9117266666667,-96.9825333333333,8.2,14.9,146,975.23,19.6,72,20.54,0.0,1000.76,189.8
2018-07-01 22:50,50.9117366666667,-96.9825333333333,13.6,19.2,151,975.16,20.4,62,20.62,0.0,1000.68,189.8
2018-07-01 23:00,50.91173,-96.982535,11.9,13.4,148,975.41,20.6,61,20.68,0.0,1000.90,113.9
2018-07-01 23:10,50.9117316666667,-96.9825316666667,11.9,14.0,155,975.55,20.8,62,20.74,0.0,1001.05,113.9
2018-07-01 23:20,50.9117333333333,-96.982535,13.9,19.4,164,975.73,21.0,61,20.84,0.0,1001.21,113.9
2018-07-01 23:30,50.91174,-96.9825183333333,17.5,35.3,191,976.51,20.6,68,20.91,0.0,1002.03,113.9
2018-07-01 23:40,50.9117383333333,-96.9825183333333,17.1,28.1,275,976.13,18.0,74,20.69,0.0,1001.78,113.9
